EW1159 Weather Reports


Display with metric or nautical units.
time (UTC)temp
F
wind
direction
speed
MPH
gust
MPH
rain 1hr
in
rain 24hr
in
rain mn
in
humidity
%
barometer
mb
20260504044546 50 332 11.0 19.0 0.00 0.00 0.00 51 985.9
20260504043100 50 347 10.0 25.0 0.00 0.00 0.00 48 985.8
20260504041539 51 13 12.0 23.0 0.00 0.00 0.00 45 985.5
20260504040036 51 347 12.0 23.0 0.00 0.00 0.00 43 985.2
20260504034545 51 26 11.0 23.0 0.00 0.00 0.00 43 984.8
20260504033035 52 33 17.0 28.0 0.00 0.00 0.00 41 984.3
20260504031535 53 35 17.0 26.0 0.00 0.00 0.00 41 983.7
20260504030036 54 19 17.0 21.0 0.00 0.00 0.00 40 983.1
20260504024530 54 23 14.0 18.0 0.00 0.00 0.00 40 982.9
20260504023028 55 53 13.0 21.0 0.00 0.00 0.00 40 982.6
20260504021535 55 345 16.0 26.0 0.00 0.00 0.00 38 982.5
20260504020035 56 30 17.0 26.0 0.00 0.00 0.00 38 982.2
20260504014526 57 29 24.0 29.0 0.00 0.00 0.00 36 981.8
20260504013033 59 46 20.0 30.0 0.00 0.00 0.00 37 981.4
20260504011525 60 23 24.0 31.0 0.00 0.00 0.00 36 981.0
20260504010024 61 18 18.0 27.0 0.00 0.00 0.00 36 980.8
20260504004537 62 15 19.0 28.0 0.00 0.00 0.00 35 980.5
20260504003023 63 343 16.0 26.0 0.00 0.00 0.00 36 980.6
20260504001531 63 330 13.0 24.0 0.00 0.00 0.00 36 980.5
20260504000021 63 347 15.0 29.0 0.00 0.00 0.00 35 980.3
20260503234523 63 349 19.0 32.0 0.00 0.00 0.00 35 980.3
20260503233019 62 340 21.0 28.0 0.00 0.00 0.00 35 980.2
20260503231521 63 345 16.0 27.0 0.00 0.00 0.00 34 980.3
20260503230022 63 352 17.0 29.0 0.00 0.00 0.00 33 980.3
20260503224517 64 37 21.0 31.0 0.00 0.00 0.00 33 980.3
20260503223016 65 43 19.0 29.0 0.00 0.00 0.00 31 980.1
20260503221516 67 53 9.0 20.0 0.00 0.00 0.00 27 979.9
20260503220026 67 47 5.0 12.0 0.00 0.00 0.00 28 980.1
20260503214522 66 297 8.0 19.0 0.00 0.00 0.00 28 980.2
20260503213018 66 56 12.0 19.0 0.00 0.00 0.00 28 980.2
20260503211513 67 56 8.0 18.0 0.00 0.00 0.00 28 980.4
20260503210011 66 43 10.0 14.0 0.00 0.00 0.00 28 980.5
20260503204506 66 46 12.0 17.0 0.00 0.00 0.00 29 980.5
20260503203006 65 61 13.0 22.0 0.00 0.00 0.00 28 980.8
20260503201502 65 52 17.0 18.0 0.00 0.00 0.00 29 981.0
20260503200001 67 340 5.0 12.0 0.00 0.00 0.00 23 981.1
20260503194624 66 345 6.0 12.0 0.00 0.00 0.00 25 981.2
20260503193055 66 304 11.0 16.0 0.00 0.00 0.00 26 981.4
20260503191600 66 333 2.0 11.0 0.00 0.00 0.00 26 981.7
20260503190057 65 335 4.0 14.0 0.00 0.00 0.00 27 982.1
20260503184548 64 336 6.0 10.0 0.00 0.00 0.00 27 982.3
20260503183054 63 334 6.0 17.0 0.00 0.00 0.00 29 982.5
20260503181557 64 360 7.0 16.0 0.00 0.00 0.00 30 982.6
20260503180049 64 322 9.0 22.0 0.00 0.00 0.00 25 982.9
20260503174541 63 315 9.0 16.0 0.00 0.00 0.00 26 983.1
20260503173040 63 302 7.0 22.0 0.00 0.00 0.00 30 983.3
20260503171534 62 318 8.0 20.0 0.00 0.00 0.00 29 983.5
20260503120105 52 281 6.0 15.0 0.00 0.00 0.00 34 984.8
20260503081526 54 290 8.0 15.0 0.00 0.00 0.00 32 985.4
20260503071518 54 283 9.0 14.0 0.00 0.00 0.00 30 985.5